sat.trackr.live / text

‹ back to catalog

IRIDIUM 171

NORAD 43929 · 2019-002H

PAYLOAD ACTIVE UNKNOWN

§ Identity

Operator
Country
US
Launch date
2019-01-11
Launch site
AFWTR
Launch vehicle
Mass (kg)
RCS (m²)

Purposes: comms

External: N2YO · Heavens-Above · Gunter

§ Orbital elements

Epoch: 2026-05-25T03:18:18.869760Z

Period
100.40 min
Inclination
86.3993°
Eccentricity
0.0002117
Mean motion
14.34218185 rev/d
Perigee alt
776.2 km
Apogee alt
779.2 km
Semi-major
7,155.8 km
B*
2.3178e-5
RAAN
3.5121°
Arg perigee
83.3522°
Mean anomaly
276.7915°
Rev number
38,565

§ Raw data

IRIDIUM 1711 43929U 19002H   26145.13771840  .00000085  00000+0  23178-4 0  99952 43929  86.3993   3.5121 0002117  83.3522 276.7915 14.34218185385654

JSON: /api/v1/satellites/43929 · /tle

For live sub-satellite position, see the globe view (requires WebGL).

§ Visibility from observer

Set your observer location to see the next 7 days of passes ≥ 10°. The values pass through the URL so the page stays shareable.

No JS? Fill the form by hand. The geolocation button needs JavaScript.